TKSAT-1 (TUPAC KATARI)  
1 39481U 13075A   19264.14493927 -.00000199  00000-0  00000+0 0  9991
2 39481   0.0488 327.1337 0002423 212.6629 144.9308  1.00271043 21169
CZ-3B R/B               
1 39482U 13075B   19265.06453361  .00243432 -52691-6  49570-3 0  9999
2 39482  24.0309 265.8078 4555009 280.0117  33.1534  6.61251249 76074